www.pogodaiklimat.ru

Погода и климат >> Архив погоды >> Гренландия >> Nuuk


АРХИВ ПОГОДЫ в Nuuk

Время (UTC), дата Ветер
(напр.,м/с)
 
Видим.   Явления Облачность Т
(С)
Тd
(С)
f
(%)
Тe
(С)
Тes
(С)
Комфортность P
(гПа)
Po
(гПа)
Тmin
(С)
Tmax
(С)
R
(мм)
R24
(мм)
S
(см)
04 12.08 Ю 4 н/о {туман} 10/10 30 м
[]
+4.8 +4.8 100 0 0 тепло 1015.6 1005.2
05 12.08 Ю 1 100 м туман 10/10 30 м
[]
+4.8 +4.8 100 +3 +3 тепло 1015.4 1005.0
06 12.08 штиль 0 100 м туман ?/? +4.8 +4.8 100 +4 +4 по сезону 1015.1 1004.8 +4.6 +7.5
07 12.08 штиль 0 100 м туман 10/10 30 м
[]
+5.1 +5.1 100 +4 +4 тепло 1014.9 1004.5
08 12.08 СЗ 1 <100 м туман 10/10 30 м
[]
+4.8 +4.8 100 +4 +4 тепло 1014.5 1004.1
09 12.08 С 3 100 м туман ?/? +5.3 +5.3 100 +2 +2 по сезону 1014.3 1003.9
10 12.08 СВ 3 100 м туман 10/10 30 м
[]
+5.6 +5.6 100 +2 +2 тепло 1014.1 1003.7
11 12.08 СВ 4 300 м туман 10/10 30 м
[]
+6.1 +6.1 100 +2 +2 по сезону 1013.6 1003.3
12 12.08 СВ 5 300 м туман ?/? +6.4 +6.4 100 +2 +2 по сезону 1013.1 1002.8
13 12.08 СВ 5 400 м туман 10/10 30 м
[]
+6.8 +6.8 100 +2 +2 тепло 1012.5 1002.2
14 12.08 С 4 400 м туман 6/6 30 м
[]
+7.1 +7.0 99 +4 +6 тепло 1011.8 1001.6
15 12.08 СВ 4 50 км в посл. час туман 1/0
[]
+10.7 +6.7 76 +8 +14 тепло 1011.4 1001.2
16 12.08 С 3 50 км 4/0
[]
+10.8 +6.7 76 +9 +16 тепло 1011.0 1000.8
17 12.08 С 3 50 км 4/0
[]
+13.0 +6.6 65 +12 +18 тепло 1010.4 1000.4
18 12.08 З 4 50 км {туман} 1/0
[]
+11.6 +7.0 73 +10 +14 тепло 1010.2 1000.2 +4.7 +13.5
19 12.08 СЗ 5 50 км 4/0
[]
+11.8 +6.9 72 +10 +12 тепло 1010.2 1000.1
20 12.08 СЗ 5 50 км 1/0
[]
+12.1 +6.1 67 +10 +12 тепло 1010.5 1000.4
21 12.08 СЗ 4 50 км 6/0
[]
+10.6 +6.3 75 +8 +9 тепло 1010.7 1000.6
22 12.08 СЗ 3 50 км 6/0
[]
+9.8 +6.0 77 +8 +8 тепло 1010.8 1000.7
23 12.08 СВ 2 50 км 6/0
[]
+11.2 +4.9 65 +11 +11 тепло 1010.7 1000.6
00 13.08 СВ 4 50 км 9/0
[]
+10.5 +4.1 65 +8 +8 тепло 1010.7 1000.6
01 13.08 СВ 5 50 км 9/0
[]
+9.2 +4.9 74 +6 +6 тепло 1010.5 1000.3
02 13.08 СВ 5 50 км 9/0
[]
+8.5 +6.1 85 +5 +5 тепло 1010.0 999.8
03 13.08 С 5 50 км 9/0
[]
+8.3 +6.6 89 +5 +5 по сезону 1009.7 999.5
04 13.08 СВ 6 50 км 9/0
[]
+8.6 +6.4 86 +5 +5 тепло 1009.8 999.6
05 13.08 СВ 7 50 км 9/0
[]
+9.7 +5.9 77 +6 +6 тепло 1009.4 999.3
06 13.08 СВ 5 50 км 9/0
[]
+9.7 +5.0 73 +7 +7 тепло 1009.5 999.3 +8.2 +12.7
07 13.08 СВ 6 50 км 9/0
[]
+10.1 +5.0 71 +7 +7 тепло 1009.6 999.4
08 13.08 СВ 6 50 км 9/0
[]
+10.7 +4.4 65 +8 +8 тепло 1009.8 999.7
09 13.08 СВ 6 50 км 9/0
[]
+10.4 +3.7 63 +7 +8 тепло 1010.0 999.8
10 13.08 СВ 6 50 км 6/0
[]
+10.7 +3.9 63 +8 +8 тепло 1010.1 1000.0
11 13.08 СВ 4 50 км 6/0
[]
+11.5 +3.8 59 +9 +11 тепло 1010.5 1000.4
12 13.08 СВ 5 50 км 6/0
[]
+12.0 +3.2 55 +10 +12 тепло 1010.8 1000.7
13 13.08 СВ 4 50 км 6/0
[]
+13.1 +1.5 45 +12 +15 тепло 1011.1 1001.0
14 13.08 СВ 3 50 км 6/0
[]
+14.2 +0.6 39 +13 +18 тепло 1011.3 1001.3
15 13.08 В 2 45 км 6/0
[]
+16.8 -1.6 28 +17 +24 тепло 1011.4 1001.4
16 13.08 З 4 50 км 4/0
[]
+15.4 +2.9 43 +15 +19 тепло 1011.5 1001.5
17 13.08 СЗ 4 50 км 9/0
[]
+15.5 +1.9 40 +15 +18 тепло 1011.6 1001.6
18 13.08 З 4 50 км 6/0
[]
+15.4 +2.9 43 +15 +18 тепло 1012.0 1002.0 +9.5 +16.9
19 13.08 СЗ 5 50 км 9/0
[]
+15.3 +3.0 44 +14 +16 тепло 1012.4 1002.4
20 13.08 СЗ 4 50 км 9/0
[]
+14.9 +2.2 42 +14 +15 тепло 1012.6 1002.6
21 13.08 С 5 50 км 6/0
[]
+14.5 +0.1 37 +13 +14 тепло 1012.8 1002.7
22 13.08 С 4 50 км 9/0
[]
+13.5 +1.5 44 +12 +12 тепло 1013.1 1003.1
23 13.08 С 5 50 км 9/0
[]
+11.3 +3.4 58 +9 +9 тепло 1013.7 1003.6
00 14.08 С 4 50 км 9/0
[]
+10.1 +3.2 62 +8 +8 тепло 1014.3 1004.1
01 14.08 СВ 3 50 км 9/0
[]
+9.5 +3.3 65 +7 +7 тепло 1014.2 1004.0
02 14.08 СВ 4 50 км 9/0
[]
+9.1 +3.2 67 +7 +7 тепло 1014.0 1003.8
03 14.08 СЗ 2 50 км 9/0
[]
+7.5 +5.0 84 +5 +5 по сезону 1014.1 1003.8
04 14.08 СЗ 6 100 м туман {дымка} 10/10 30 м
[]
+5.0 +4.9 99 -0 -0 тепло 1014.0 1003.7
05 14.08 СЗ 4 200 м туман 10/10 30 м
[]
+4.4 +4.4 100 0 0 по сезону 1013.7 1003.3
06 14.08 СЗ 3 14 км туман {дымка} 6/6 30 м
[]
+4.5 +4.5 100 +1 +1 по сезону 1013.2 1002.8 +4.3 +15.9
07 14.08 СЗ 3 100 м туман 10/10 30 м
[]
+4.0 +4.0 100 0 0 тепло 1013.4 1003.0
08 14.08 СЗ 3 100 м туман 10/10 30 м
[]
+3.8 +3.8 100 0 0 по сезону 1013.3 1002.9
09 14.08 С 2 1000 м туман ?/? +4.3 +4.3 100 +1 +1 по сезону 1013.3 1002.9
10 14.08 С 3 700 м туман 10/10 30 м
[]
+3.8 +3.8 100 -0 -0 тепло 1013.3 1002.9
11 14.08 С 4 1400 м туман 10/10 30 м
[]
+4.0 +4.0 100 -1 -1 по сезону 1013.0 1002.6
12 14.08 С 4 21 км {туман} 9/9 30 м
[]
+4.6 +4.6 100 0 0 прохладно 1012.9 1002.5
13 14.08 СВ 3 50 км 4/4 30 м
[]
+6.2 +5.0 92 +3 +6 по сезону 1012.6 1002.3
14 14.08 50 км 6/0
[]
+8.4 +4.9 79 1012.2 1002.0
15 14.08 С 1 45 км 4/0
[]
+9.3 +5.1 75 +10 +19 тепло 1011.8 1001.6
16 14.08 СЗ 1 50 км 1/0
[]
+10.3 +4.6 68 +10 +20 опасность
простуды
1011.1 1001.0
17 14.08 З 5 50 км 1/0
[]
+10.2 +5.3 72 +7 +12 тепло 1011.1 1001.0
18 14.08 З 4 50 км 4/0
[]
+10.4 +5.1 70 +8 +11 тепло 1011.2 1001.0 +3.6 +10.7
19 14.08 З 5 45 км 6/0
[]
+9.6 +5.2 74 +7 +9 тепло 1011.2 1001.0
20 14.08 СЗ 5 50 км 6/0
[]
+8.9 +5.1 77 +6 +7 тепло 1011.2 1001.0
21 14.08 З 5 50 км 9/0
[]
+7.8 +4.9 82 +4 +5 по сезону 1011.4 1001.1
22 14.08 З 4 45 км 6/0
[]
+6.7 +4.7 87 +3 +3 тепло 1011.6 1001.3
23 14.08 СЗ 4 40 км 4/0
[]
+6.2 +4.7 90 +3 +3 тепло 1011.7 1001.4
00 15.08 СЗ 4 35 км 10/10 90 м
[]
+5.6 +4.8 95 +2 +2 по сезону 1012.0 1001.7
01 15.08 СЗ 3 35 км 10/10 90 м
[]
+5.2 +4.5 95 +2 +2 тепло 1012.2 1001.9
02 15.08 З 2 35 км 10/10 90 м
[]
+5.2 +4.4 95 +2 +2 тепло 1012.4 1002.0
03 15.08 З 3 28 км 10/10 90 м
[]
+5.2 +4.5 95 +2 +2 по сезону 1012.6 1002.2
04 15.08 ЮЗ 5 50 км 10/10 90 м
[]
+5.3 +4.1 92 +1 +1 тепло 1012.6 1002.2
05 15.08 ЮЗ 6 40 км 10/10 120 м
[]
+4.5 +3.5 93 -1 -1 по сезону 1012.6 1002.3
06 15.08 З 5 16 км 10/10 90 м
[]
+4.2 +3.4 95 -1 -1 прохладно 1013.1 1002.8 +4.2 +10.6
07 15.08 ЮЗ 5 21 км 10/10 150 м
[]
+4.4 +3.3 93 -1 -1 тепло 1013.2 1002.9
08 15.08 ЮЗ 4 35 км 10/10 180 м
[]
+4.7 +3.4 91 +1 +1 по сезону 1013.3 1002.9
09 15.08 Ю 4 10 км 10/10 120 м
[]
+4.4 +3.7 95 -0 -0 по сезону 1013.4 1003.0
10 15.08 Ю 5 10 км 10/10 180 м
[]
+4.8 +3.7 93 0 0 тепло 1013.6 1003.2
11 15.08 ЮЗ 4 9000 м дымка 10/10 180 м
[]
+4.8 +3.6 92 0 0 по сезону 1013.8 1003.4
12 15.08 ЮЗ 5 8000 м дымка 10/10 210 м
[]
+5.1 +3.6 90 +1 +1 по сезону 1014.0 1003.6
13 15.08 ЮЗ 6 50 км {дымка} 10/10 210 м
[]
+5.7 +3.3 85 +1 +1 тепло 1014.1 1003.8
14 15.08 ЮЗ 6 45 км 10/10 270 м
[]
+6.1 +3.2 82 +1 +1 по сезону 1014.3 1004.0
15 15.08 ЮЗ 6 50 км {дымка} 10/10 360 м
[]
+6.5 +3.2 79 +2 +2 по сезону 1014.4 1004.1
16 15.08 ЮЗ 6 50 км 10/10 360 м
[]
+7.0 +3.0 76 +3 +3 тепло 1014.2 1003.9
17 15.08 Ю 6 50 км 10/10 360 м
[]
+6.5 +3.4 81 +2 +2 по сезону 1014.4 1004.1
18 15.08 Ю 7 50 км {дымка} 9/9 420 м
[]
+7.1 +3.3 77 +3 +3 по сезону 1014.1 1003.8 +4.2 +7.3
19 15.08 ЮЗ 6 50 км 9/9 400 м
[]
+6.8 +3.1 77 +2 +3 тепло 1014.5 1004.2
20 15.08 Ю 7 50 км 6/6 400 м
[]
+6.3 +3.0 79 +1 +2 по сезону 1014.3 1003.9
21 15.08 Ю 7 50 км 9/9 420 м
[]
+6.2 +3.2 81 +1 +1 прохладно 1014.4 1004.1
22 15.08 Ю 7 50 км 10/10 400 м
[]
+5.9 +3.5 85 +1 +1 тепло 1014.5 1004.1
23 15.08 Ю 6 45 км 10/10 300 м
[]
+5.6 +3.7 88 +1 +1 по сезону 1014.7 1004.3
00 16.08 Ю 8 50 км 9/9 420 м
[]
+5.8 +3.8 87 0 0 прохладно 1014.9 1004.5
01 16.08 Ю 7 50 км 10/10 360 м
[]
+6.3 +4.0 85 +1 +1 тепло 1014.9 1004.6
02 16.08 Ю 6 22 км н/о +6.0 +4.5 90 +1 +1 по сезону 1015.2 1004.9
03 16.08 Ю 6 6000 м дымка 10/10 210 м
[]
+5.2 +4.8 97 0 0 по сезону 1015.5 1005.1
04 16.08 Ю 7 19 км 10/10 180 м
[]
+5.4 +5.2 99 -0 -0 тепло 1015.5 1005.2
05 16.08 Ю 6 30 км 10/10 120 м
[]
+5.6 +5.2 97 0 0 по сезону 1015.9 1005.6
06 16.08 Ю 6 45 км {дымка} 9/9 90 м
[]
+5.6 +5.0 96 +1 +1 по сезону 1016.2 1005.8 +5.1 +7.1
07 16.08 Ю 5 35 км 9/9 60 м
[]
+5.6 +5.1 97 +1 +1 тепло 1016.4 1006.0
08 16.08 Ю 4 35 км в посл. час осадки {ливн. осадки, морось} 9/9 1050 м
[]
+5.6 +5.1 97 +2 +2 тепло 1016.6 1006.2
09 16.08 Ю 2 29 км {ливн. осадки, морось} 9/0 2000 м
[]
+5.7 +5.0 95 +3 +3 по сезону 1016.8 1006.5 0.0
10 16.08 штиль 0 30 км 9/0
[]
+6.6 +5.2 91 +6 +7 тепло 1017.0 1006.6
11 16.08 штиль 0 45 км 9/9 1200 м
[]
+7.0 +5.2 88 +6 +6 тепло 1017.0 1006.6
12 16.08 штиль 0 45 км {ливн. осадки, морось} 6/0
[]
+7.3 +5.0 85 +6 +11 тепло 1016.9 1006.6
13 16.08 С 1 45 км 4/4 1260 м
[]
+7.9 +5.0 82 +8 +13 тепло 1017.0 1006.7
14 16.08 СЗ 1 45 км 9/9 1350 м
[]
+7.3 +5.3 87 +7 +8 тепло 1017.2 1006.9
15 16.08 С 3 50 км 9/0 2000 м
[]
+8.2 +5.4 82 +6 +9 по сезону 1017.0 1006.7
16 16.08 СВ 4 50 км 9/0 2000 м
[]
+8.7 +4.9 77 +6 +9 тепло 1016.6 1006.3
17 16.08 СВ 5 50 км 9/0 2000 м
[]
+9.1 +5.4 78 +6 +8 тепло 1016.3 1006.1
18 16.08 СВ 4 50 км 9/0
[]
+9.4 +5.2 75 +7 +9 по сезону 1016.0 1005.8 +5.4 +9.7
19 16.08 СВ 4 50 км 9/0
[]
+9.2 +5.7 79 +6 +8 тепло 1015.7 1005.4
20 16.08 СВ 5 50 км 6/0
[]
+9.1 +5.9 80 +6 +7 тепло 1015.3 1005.1
21 16.08 СВ 6 50 км 6/0
[]
+9.6 +5.1 74 +6 +7 по сезону 1014.6 1004.4
22 16.08 СВ 6 50 км 4/0
[]
+10.1 +4.7 69 +7 +7 тепло 1014.2 1004.0
23 16.08 СВ 6 50 км 9/0
[]
+9.5 +5.0 73 +6 +6 тепло 1013.8 1003.6
00 17.08 СВ 6 50 км 9/0
[]
+9.6 +5.1 74 +6 +6 по сезону 1013.6 1003.4
01 17.08 СВ 5 50 км 9/0
[]
+10.9 +3.3 59 +9 +9 тепло 1013.2 1003.1
02 17.08 ЮЗ 2 50 км 9/0
[]
+10.8 +3.4 60 +10 +10 тепло 1013.4 1003.2
03 17.08 Ю 10
{14}
29 км 9/0
[]
+8.8 +5.4 79 +4 +4 по сезону 1013.5 1003.3
04 17.08 Ю 9 50 км 9/9 400 м
[]
+8.4 +5.9 84 +3 +3 тепло 1013.7 1003.4
05 17.08 Ю 7 50 км ливневой дождь {морось} 10/10 1500 м
[]
+8.1 +6.1 87 +4 +4 тепло 1013.9 1003.6
06 17.08 Ю 5
{14}
50 км в посл. час морось {ливн. осадки} 10/0 2000 м
[]
+8.3 +5.7 84 +5 +5 по сезону 1013.6 1003.4 +8.0 +11.6 0.0
07 17.08 Ю 4 50 км 9/9 1500 м
[]
+8.5 +5.3 80 +5 +5 тепло 1013.1 1002.9
08 17.08 Ю 5 50 км 10/10 1500 м
[]
+7.8 +5.6 86 +4 +4 тепло 1012.8 1002.5
09 17.08 ЮВ 1 50 км 10/10 1500 м
[]
+9.0 +5.3 78 +8 +8 тепло 1012.3 1002.1
10 17.08 Ю 2 24 км слаб. дождь 10/10 1260 м
[]
+8.0 +6.1 88 +6 +6 тепло 1012.1 1001.8 0.2
11 17.08 СВ 2 50 км в посл. час морось {ливн. осадки, дождь} 9/9 1170 м
[]
+8.1 +6.0 87 +6 +6 тепло 1011.4 1001.1
12 17.08 СВ 3 30 км слаб. ливневой дождь 9/9 1170 м
[]
+7.6 +6.4 92 +5 +5 по сезону 1010.4 1000.2 0.4
13 17.08 В 4 50 км в посл. час дождь {ливн. осадки} 9/9 1200 м
[]
+10.0 +5.3 73 +8 +8 тепло 1009.7 999.6 0.2
14 17.08 ЮЗ 2 16 км ливневой дождь 9/9 1200 м
[]
+9.7 +6.9 83 +8 +9 тепло 1009.4 999.3 0.3
15 17.08 С 2 40 км слаб. дождь 9/9 1110 м
[]
+8.1 +6.1 87 +6 +7 по сезону 1008.8 998.6 2
16 17.08 З 3 11 км слаб. ливневой дождь 10/10 1110 м
[]
+7.5 +6.2 91 +5 +5 тепло 1008.3 998.1 0.1
17 17.08 З 1 7000 м слаб. дождь 10/10 1020 м
[]
+7.3 +6.9 97 +6 +6 тепло 1007.9 997.7 1
18 17.08 штиль 0 3900 м морось {ливн. осадки, дождь} 9/9 30 м
[]
+7.4 +7.3 99 +6 +7 по сезону 1007.5 997.3 +7.1 +11.1 2
19 17.08 штиль 0 1800 м дождь {снег} 9/9 700 м
[]
+7.6 +7.4 99 +7 +7 тепло 1007.2 997.0 2
20 17.08 Ю 4 6000 м морось {дождь} 10/10 30 м
[]
+7.3 +7.2 99 +4 +4 тепло 1007.2 997.0 2
21 17.08 Ю 8 9000 м слаб. дождь 10/10 30 м
[]
+7.1 +7.0 99 +2 +2 по сезону 1006.6 996.3 5
22 17.08 Ю 8 8000 м слаб. дождь 10/10 60 м
[]
+7.1 +6.9 99 +2 +2 тепло 1006.1 995.9 0.8
23 17.08 Ю 5 10 км слаб. дождь 9/9 60 м
[]
+7.4 +7.2 99 +3 +3 тепло 1006.1 995.9 2
00 18.08 Ю 8 13 км морось {снег, дождь} 9/9 330 м
[]
+7.6 +7.1 97 +2 +2 по сезону 1005.6 995.4 4
01 18.08 Ю 8 21 км слаб. дождь {морось} 9/9 210 м
[]
+7.6 +7.0 96 +2 +2 тепло 1005.5 995.3 0.5
02 18.08 Ю 7 45 км в посл. час морось {дождь} 9/9 1500 м
[]
+7.8 +6.7 93 +3 +3 тепло 1005.1 994.9
03 18.08 В 1 50 км {дождь, морось} 9/9 120 м
[]
+7.5 +6.8 95 +7 +7 тепло 1005.1 994.9 0.5
04 18.08 Ю 5 50 км 9/9 300 м
[]
+7.9 +6.9 93 +4 +4 тепло 1004.7 994.6
05 18.08 ЮВ 3 50 км 10/10 1000 м
[]
+8.0 +7.1 94 +5 +5 тепло 1004.5 994.3
06 18.08 Ю 1 50 км {дождь, морось} 10/10 1000 м
[]
+8.7 +6.9 88 +9 +9 тепло 1004.2 994.1 +7.0 +8.7
07 18.08 Ю 2 50 км 9/9 150 м
[]
+7.9 +7.1 95 +6 +6 тепло 1004.4 994.3
08 18.08 Ю 5 50 км 10/10 90 м
[]
+7.3 +6.7 96 +3 +3 тепло 1004.6 994.4
09 18.08 Ю 3 50 км 10/10 330 м
[]
+7.5 +7.0 97 +4 +4 по сезону 1004.9 994.7
10 18.08 ЮЗ 1 50 км 9/9 60 м
[]
+7.7 +7.3 97 +8 +8 тепло 1005.1 995.0
11 18.08 Ю 6 50 км 9/9 1440 м
[]
+7.5 +6.6 94 +3 +3 тепло 1005.2 995.0
12 18.08 Ю 7 50 км 9/9 1500 м
[]
+7.7 +7.0 95 +3 +3 по сезону 1005.3 995.1
13 18.08 Ю 6 50 км 9/9 300 м
[]
+8.2 +7.1 93 +4 +4 тепло 1006.1 995.9
14 18.08 ЮЗ 5 3300 м в посл. час туман {дымка} 10/10 60 м
[]
+7.2 +7.0 99 +3 +3 тепло 1006.7 996.5
15 18.08 Ю 5 50 км {туман, дымка} 9/9 30 м
[]
+7.5 +7.0 97 +3 +4 по сезону 1006.8 996.6
16 18.08 Ю 5 50 км 9/9 420 м
[]
+8.6 +6.9 89 +5 +5 тепло 1006.9 996.7
17 18.08 Ю 4 50 км 9/9 210 м
[]
+8.7 +7.0 89 +5 +6 тепло 1007.6 997.4
18 18.08 Ю 4 50 км {туман, дымка} 9/9 210 м
[]
+8.5 +6.7 88 +5 +6 по сезону 1008.0 997.8 +6.8 +9.2
19 18.08 ЮЗ 3 50 км 9/9 180 м
[]
+8.7 +7.3 91 +6 +6 тепло 1008.4 998.3
20 18.08 Ю 5 50 км 9/9 180 м
[]
+9.0 +7.2 88 +5 +6 тепло 1008.8 998.7
21 18.08 Ю 6 50 км 9/9 180 м
[]
+8.5 +7.1 91 +4 +4 по сезону 1009.2 999.0
22 18.08 Ю 6 50 км 9/9 120 м
[]
+7.9 +7.1 95 +4 +4 тепло 1009.5 999.3
23 18.08 Ю 7 50 км 9/9 120 м
[]
+7.8 +7.0 95 +3 +3 тепло 1009.5 999.3
00 19.08 Ю 8 50 км 9/9 1020 м
[]
+7.8 +7.0 95 +3 +3 по сезону 1009.9 999.7
01 19.08 Ю 6 50 км 9/9 120 м
[]
+7.7 +7.0 95 +3 +3 тепло 1010.1 999.9
02 19.08 Ю 5 50 км 9/9 90 м
[]
+7.6 +7.1 97 +3 +3 тепло 1010.4 1000.2
03 19.08 Ю 5 50 км 9/9 120 м
[]
+7.7 +7.1 96 +4 +4 по сезону 1010.4 1000.2

 

Местоположение метеостанции Nuuk (Гренландия): широта 64.17 долгота -51.75 высота над уровнем моря 84 м.

В архиве по умолчанию представлена погода в Nuuk за последнюю неделю. Архивные данные за месяц целиком и за предыдущие месяцы, начиная с января 2011 года, Вы можете получить, выбрав интересующий диапазон дат из раскрывающегося списка и нажав кнопку "Ввод!".


*Определитесь, кто Вы:
робот инопланетянин человек

Внимание! Время в таблицах - всемирное. Для получения местного времени необходимо прибавить поправку, которая равна -3 ч.

Смотрите также архив погоды в соседних городах и на ближайших метеорологических станциях:

Погода в Mittarfik Nuuk (Гренландия) (5 км)
Погода в Sioralik (Гренландия) (102 км)
Погода в Maniitsoq Mittarfia (Гренландия) (150 км)
Погода в Ukiivik (Гренландия) (190 км)
Погода в Paamiut (Гренландия) (263 км)
Погода в Kangerlussuaq (Гренландия) (321 км)
Погода в Sisimiut Mittarfia (Гренландия) (322 км)
Погода в Kitsissut (Гренландия) (414 км)
Погода в Nunarsuit (Гренландия) (415 км)
Погода в Narsarsuaq (Гренландия) (467 км)

Пояснения к столбцам:

Ветер - указаны скорость ветра в м/с - средняя за 10 мин, порывы в срок и между сроками (в фигурных скобках) и направление, откуда дует ветер: С - северный, СВ - северо-восточный, В - восточный, ЮВ - юго-восточный, Ю - южный, ЮЗ - юго-западный, З - западный, СЗ - северо-западный.
Видимость - горизонтальная дальность видимости в метрах или километрах. При видимости от 1 до 10 км при отсутствии осадков обычно наблюдается дымка, при ухудшении видимости до 1 км и менее - туман. В сухую погоду видимость может ухудшаться дымом, пылью или мглою.
Явления - указаны атмосферные явления, наблюдавшиеся в срок или в последний час перед сроком; фигурными скобками обозначены явления, наблюдавшиеся между сроками (за 1-3 часа до срока); квадратными скобками обозначены град или гололедные отложения с указанием их диаметра в мм.
Облачность - указаны через наклонную черту общая и нижняя облачность в баллах и высота нижней границы облаков в метрах; квадратными скобками обозначены формы облаков: Ci - перистые, Cs - перисто-слоистые, Cc - перисто-кучевые, Ac - высококучевые, As - высокослоистые, Sc - слоисто-кучевые, Ns - слоисто-дождевые, Cu - кучевые, Cb - кучево-дождевые. Подробнее классификацию облаков см. в Атласе облаков (PDF).
T - Температура воздуха - температура, измеренная на высоте 2 м над землей.
Td - Температура точки росы - температура, при понижении до которой содержащийся в воздухе водяной пар достигнет насыщения.
f - Относительная влажность воздуха - влажноcть воздуха, измеренная на высоте 2 м над землей.
Te - Эффективная температура - температура, которую ощущает одетый по сезону человек в тени. Характеристика душности погоды. При расчете учитывается влияние влажности воздуха и скорости ветра на теплоощущения человека.
Tes - Эффективная температура на солнце - температура, которую ощущает человек, с поправкой на солнечный нагрев. Характеристика знойности погоды. Зависит от высоты солнца над горизонтом, облачности и скорости ветра. Ночью, в пасмурную погоду, а также при ветре 12 м/с и более поправка равна нулю.
P - Атмосферное давление - приведенное к уровню моря атмосферное давление.
Po - Атмосферное давление - измеренное на уровне метеостанции атмосферное давление.
Tmin - Минимальная температура - минимум температуры воздуха на высоте 2 м над землей.
Tmax - Максимальная температура - максимум температуры воздуха на высоте 2 м над землей.
R - Количество осадков - Количество выпавших осадков за период времени, мм. При наведении курсора мыши на число - период времени, за который выпало указанное количество осадков.
R24 - Количество осадков - Количество выпавших осадков за 24 часа, мм.
S - Снежный покров - Высота снежного покрова, см. При наведении курсора мыши на число - состояние снежного покрова и степень покрытия местности в баллах.